Bryce Canyon, UT

1:01 PM MDT on October 18, 2019 (GMT -0600)
Bryce Canyon

Weather History for KBCE - September, 2019

Change the Weather History Date:

Monday, September 16, 2019

  Actual Average Record
Temperature  
Mean Temperature 59 °F -  
Max Temperature 73 °F 69 °F 82 °F (2000)
Min Temperature 45 °F 36 °F 23 °F (1970)
Degree Days  
Heating Degree Days 6    
Growing Degree Days 9 (Base 50)    
Moisture  
Dew Point 35 °F    
Average Humidity 42    
Maximum Humidity 76    
Minimum Humidity 20    
Precipitation  
Precipitation 0.00 in - - ()
Sea Level Pressure  
Sea Level Pressure 29.89 in    
Wind  
Wind Speed 12 mph (South)    
Max Wind Speed 23 mph    
Max Gust Speed 36 mph    
Visibility 10 miles    
Events      
Averages and records for this station are not official NWS values.
T = Trace of Precipitation, MM = Missing Value Source: NWS Daily Summary

Daily Weather History Graph

Daily Weather History Graph

Search for Another Location

Airport or City:

Astronomy

Sep. 16, 2019 Rise Set
Actual Time 7:11 AM MDT 7:35 PM MDT
Civil Twilight 6:44 AM MDT 8:01 PM MDT
Nautical Twilight 6:14 AM MDT 8:32 PM MDT
Astronomical Twilight 5:42 AM MDT 9:03 PM MDT
Moon 9:13 PM MDT (9/16) 9:19 AM MDT (9/16)
Length of Visible Light 13h 16m
Length of Day
12h 23m
Waning Gibbous, 94% of the Moon is Illuminated
Sep 16
Waning Gibbous
Sep 21
Last Quarter
Sep 28
New
Oct 5
First Quarter
Oct 13
Full

Hourly Weather History & Observations

Time (MDT) Temp. Windchill Dew Point Humidity Pressure Visibility Wind Dir Wind Speed Gust Speed Precip Events Conditions
12:53 AM 57.9 °F - 39.9 °F 51% 29.88 in 10.0 mi SE 11.5 mph - N/A   Overcast
1:53 AM 55.0 °F - 39.9 °F 57% 29.89 in 10.0 mi SSE 10.4 mph - N/A   Scattered Clouds
2:53 AM 52.0 °F - 39.9 °F 63% 29.89 in 10.0 mi SE 8.1 mph - N/A   Clear
3:53 AM 48.9 °F - 39.0 °F 69% 29.90 in 10.0 mi SSE 5.8 mph - N/A   Clear
4:53 AM 46.0 °F 43.1 °F 37.9 °F 73% 29.91 in 10.0 mi SSE 5.8 mph - N/A   Clear
5:53 AM 45.0 °F - 37.9 °F 76% 29.93 in 10.0 mi Calm Calm - N/A   Clear
7:53 AM 53.1 °F - 42.1 °F 66% 29.92 in 10.0 mi SSE 9.2 mph - N/A   Clear
8:53 AM 55.9 °F - 42.1 °F 60% 29.92 in 10.0 mi SE 15.0 mph - N/A   Clear
9:53 AM 59.0 °F - 43.0 °F 55% 29.91 in 10.0 mi SE 18.4 mph - N/A   Clear
10:53 AM 60.1 °F - 44.1 °F 55% 29.92 in 10.0 mi SSE 17.3 mph - N/A   Clear
11:53 AM 63.0 °F - 44.1 °F 50% 29.89 in 10.0 mi SE 13.8 mph 20.7 mph N/A   Clear
12:53 PM 66.9 °F - 37.9 °F 34% 29.86 in 10.0 mi SSW 9.2 mph - N/A   Partly Cloudy
1:53 PM 68.0 °F - 35.1 °F 30% 29.85 in 10.0 mi SSW 19.6 mph 29.9 mph N/A   Clear
2:49 PM 73.4 °F - 33.8 °F 23% 30.17 in 10.0 mi South 19.6 mph 27.6 mph N/A   Scattered Clouds
2:53 PM 72.0 °F - 32.0 °F 23% 29.83 in 10.0 mi SSW 18.4 mph 27.6 mph N/A   Scattered Clouds
3:06 PM 73.9 °F - 30.0 °F 20% 30.17 in 10.0 mi SW 23.0 mph 35.7 mph N/A   Mostly Cloudy
3:53 PM 71.1 °F - 30.0 °F 22% 29.82 in 10.0 mi SW 17.3 mph 31.1 mph N/A   Partly Cloudy
4:53 PM 73.0 °F - 32.0 °F 22% 29.81 in 10.0 mi SSW 16.1 mph 28.8 mph N/A   Mostly Cloudy
5:53 PM 68.0 °F - 28.9 °F 23% 29.83 in 10.0 mi WSW 13.8 mph 27.6 mph N/A   Overcast
6:53 PM 66.9 °F - 28.9 °F 24% 29.83 in 10.0 mi SW 15.0 mph 24.2 mph N/A   Clear
7:53 PM 59.0 °F - 28.9 °F 32% 29.83 in 10.0 mi SSW 9.2 mph - N/A   Clear
8:53 PM 62.1 °F - 28.0 °F 28% 29.82 in 10.0 mi SW 12.7 mph - N/A   Partly Cloudy
9:53 PM 62.1 °F - 28.0 °F 28% 29.80 in 10.0 mi SW 12.7 mph - N/A   Partly Cloudy
10:53 PM 60.1 °F - 28.0 °F 30% 29.81 in 10.0 mi SSW 10.4 mph - N/A   Scattered Clouds
11:53 PM 60.1 °F - 28.9 °F 31% 29.78 in 10.0 mi South 11.5 mph - N/A   Scattered Clouds